[[[{"header":{"parameterUnit":"kt","parameterCategory":2,"dx":1,"dy":1,"la1":30.253999710083008,"la2":30.299108505249023,"lo1":-89.0895004272461,"lo2":-89.04439544677734,"nx":28,"ny":28,"refTime":"2022-10-19T21:00:00:Z","depth":0,"parameterNumber":1,"parameterNumberName":"U-component_of_WINDS"},"data":[-1.2925,-1.3,-1.3005,-1.3092,-1.3112,-1.3171,-1.3194,-1.3224,-1.325,-1.332,-1.3362,-1.3375,-1.3401,-1.3451,-1.3496,-1.35,-1.3517,-1.3538,-1.3539,-1.3442,-1.3429,-1.3416,-1.3398,-1.3543,-1.3543,-1.3639,-1.3639,-1.364,-1.2846,-1.2867,-1.2916,-1.2966,-1.3007,-1.2989,-1.3028,-1.3063,-1.3117,-1.315,-1.3192,-1.3255,-1.3306,-1.3326,-1.3375,-1.3408,-1.3402,-1.3421,-1.3417,-1.3421,-1.3317,-1.3298,-1.3424,-1.3424,-1.3424,-1.3424,-1.3424,-1.3424,-1.2704,-1.2749,-1.2783,-1.2837,-1.2864,-1.2898,-1.2942,-1.2957,-1.3005,-1.3059,-1.3057,-1.3119,-1.3152,-1.3216,-1.3239,-1.3285,-1.3266,-1.3288,-1.3293,-1.3297,-1.33,-1.3154,-1.3295,-1.3294,-1.3294,-1.3294,-1.3294,0,-1.26,-1.2601,-1.265,-1.27,-1.2739,-1.2779,-1.2816,-1.2843,-1.285,-1.2889,-1.2946,-1.298,-1.3047,-1.31,-1.3149,-1.3168,-1.3153,-1.3154,-1.3168,-1.3168,-1.316,-1.3161,-1.2988,-1.315,-1.3149,-1.3148,-1.3147,-1.3147,-1.2453,-1.2508,-1.2548,-1.2581,-1.2603,-1.2657,-1.269,-1.2693,-1.2728,-1.2773,-1.2814,-1.2869,-1.2912,-1.3003,-1.3021,-1.3071,-1.3064,-1.3124,-1.3072,-1.3068,-1.306,-1.3056,-1.3059,-1.3134,-1.3135,-1.3137,-1.3138,0,-1.2368,-1.2379,-1.2466,-1.2502,-1.2512,-1.2569,-1.2598,-1.2645,-1.2656,-1.2721,-1.2736,-1.2754,-1.281,-1.2819,-1.2887,-1.2889,-1.2977,-1.2971,-1.2964,-1.2962,-1.3014,-1.3007,-1.3189,-1.3211,-1.3065,-1.3066,-1.3067,0,-1.2246,-1.2318,-1.233,-1.238,-1.2459,-1.246,-1.2538,-1.2556,-1.2587,-1.2639,-1.2625,-1.2673,-1.2678,-1.2727,-1.2731,-1.2805,-1.282,-1.2825,-1.2824,-1.2824,-1.2823,-1.2841,-1.2833,-1.2827,-1.2826,-1.2825,-1.2825,0,-1.211,-1.2204,-1.2286,-1.2309,-1.2355,-1.2393,-1.2414,-1.245,-1.2484,-1.2529,-1.2549,-1.2603,-1.2631,-1.2671,-1.2676,-1.2639,-1.2768,-1.2719,-1.2773,-1.2773,-1.28,-1.2798,-1.2958,-1.2823,-1.2823,-1.2823,-1.2822,0,-1.2013,-1.2059,-1.2178,-1.2215,-1.224,-1.2295,-1.2346,-1.2396,-1.2435,-1.2441,-1.2477,-1.2469,-1.2538,-1.2488,-1.2581,-1.2531,-1.2559,-1.2572,-1.2576,-1.2581,-1.2523,-1.2609,-1.2763,-1.2778,-1.2586,-1.2584,-1.2583,0,-1.1852,-1.1976,-1.1978,-1.2092,-1.215,-1.2129,-1.219,-1.2226,-1.224,-1.2291,-1.2306,-1.2365,-1.233,-1.2349,-1.2395,-1.2413,-1.2478,-1.2405,-1.2474,-1.2476,-1.246,-1.2603,-1.2622,-1.2729,-1.2558,-1.256,-1.2562,0,-1.1729,-1.1787,-1.1808,-1.1833,-1.1883,-1.1933,-1.2004,-1.2063,-1.2096,-1.2141,-1.2198,-1.2284,-1.2258,-1.2293,-1.2293,-1.234,-1.2434,-1.2307,-1.2308,-1.2327,-1.2548,-1.2565,-1.2583,-1.2423,-1.2426,-1.2428,-1.2543,0,-1.1571,-1.1637,-1.1694,-1.1755,-1.1795,-1.1869,-1.1881,-1.1922,-1.1917,-1.193,-1.2018,-1.2053,-1.2114,-1.214,-1.2137,-1.2243,-1.2226,-1.2201,-1.2151,-1.2246,-1.2284,-1.23,-1.2093,-1.2092,-1.2091,-1.209,0,0,-1.1412,-1.1507,-1.151,-1.158,-1.1614,-1.1593,-1.167,-1.1702,-1.1767,-1.179,-1.1762,-1.1888,-1.1919,-1.2023,-1.2054,-1.2081,-1.2099,-1.2067,-1.2202,-1.2214,-1.2226,-1.2266,-1.2282,-1.2088,-1.2088,-1.2087,-1.2087,0,-1.1357,-1.139,-1.1468,-1.15,-1.1549,-1.156,-1.1579,-1.1623,-1.1636,-1.1725,-1.1705,-1.176,-1.1863,-1.1896,-1.1926,-1.2055,-1.2037,-1.2074,-1.2137,-1.219,-1.2204,-1.2216,-1.2258,-1.2274,-1.2084,-1.2084,-1.2084,0,-1.1235,-1.1268,-1.1308,-1.1388,-1.1421,-1.1483,-1.1434,-1.1504,-1.155,-1.1525,-1.1613,-1.1634,-1.1681,-1.1781,-1.1827,-1.1803,-1.1979,-1.1928,-1.1936,-1.1941,-1.1993,-1.2009,-1.2024,-1.1827,-1.1826,-1.1825,0,0,-1.1185,-1.1248,-1.1285,-1.1378,-1.1399,-1.1418,-1.1454,-1.1453,-1.1497,-1.1514,-1.1542,-1.1584,-1.1643,-1.1682,-1.1739,-1.1848,-1.1857,-1.1896,-1.1908,-1.1918,-1.1928,-1.1983,-1.1999,-1.1821,-1.1821,-1.1821,0,0,-1.1162,-1.1209,-1.1197,-1.1305,-1.1347,-1.139,-1.1445,-1.1431,-1.1484,-1.1477,-1.148,-1.1492,-1.1586,-1.1609,-1.1559,-1.1721,-1.1672,-1.1685,-1.1703,-1.1718,-1.173,-1.1722,-1.1513,0,0,0,0,0,-1.1112,-1.1202,-1.1191,-1.1211,-1.1314,-1.1396,-1.1409,-1.1414,-1.1377,-1.142,-1.1441,-1.1421,-1.1581,-1.1537,-1.1557,-1.1613,-1.1775,-1.1783,-1.1791,-1.184,-1.1856,-1.1869,0,0,0,0,0,0,-1.112,-1.1144,-1.1188,-1.1236,-1.1259,-1.1393,-1.1332,-1.1336,-1.1373,-1.1367,-1.1418,-1.1423,-1.1429,-1.1527,-1.1545,-1.1598,-1.1507,-1.1778,-1.1785,-1.1791,-1.1845,-1.1858,-1.187,0,0,0,0,0,-1.1126,-1.1146,-1.1311,-1.1234,-1.1255,-1.1282,-1.1329,-1.1331,-1.136,-1.1394,-1.1398,-1.136,-1.143,-1.1445,-1.1538,-1.159,-1.1495,-1.1502,-1.1782,-1.1788,-1.1793,-1.1852,0,0,0,0,0,0,-1.1131,-1.1149,-1.1315,-1.1321,-1.1201,-1.1274,-1.1286,-1.1328,-1.1384,-1.1389,-1.1335,-1.1331,-1.1432,-1.1444,-1.1456,-1.1586,-1.1485,-1.1492,-1.1496,-1.1787,-1.1791,-1.1795,0,0,0,0,0,0,-1.1138,-1.1154,-1.1318,-1.1276,-1.1277,-1.1267,-1.1278,-1.1358,-1.1385,-1.1322,-1.132,-1.1333,-1.1414,-1.1443,-1.1452,-1.1578,-1.1477,-1.1484,-1.1488,-1.1491,-1.179,-1.1793,0,0,0,0,0,0,-1.1145,-1.1159,-1.1274,-1.1275,-1.1276,-1.1347,-1.1338,-1.1444,-1.1348,-1.132,-1.134,-1.1336,-1.1414,-1.1423,-1.145,-1.1572,-1.1576,-1.1477,-1.1482,-1.1485,-1.1487,0,0,0,0,0,0,0,-1.115,-1.1056,-1.1278,-1.1275,-1.1276,-1.1379,-1.1381,-1.1382,-1.1348,-1.1344,-1.1341,-1.1338,-1.144,-1.1447,-1.1455,-1.1567,0,0,-1.1477,-1.148,0,0,0,0,0,0,0,0,-1.1051,-1.1055,-1.1278,-1.1279,-1.1281,-1.1379,-1.1381,-1.1382,-1.1347,-1.1344,-1.1342,-1.1339,-1.1442,-1.1448,-1.1454,0,0,0,0,0,0,0,0,0,0,0,0,0,0,0,-1.1278,-1.1279,0,-1.1379,-1.1381,-1.1382,-1.1347,-1.1344,-1.1342,-1.134,-1.1444,-1.1449,-1.1453,0,0,0,0,0,0,0,0,0,0,0,0,0,0,0,0,0,0,0,0,0,0,0,0,0,0,0,0,0,0,0,0,0,0,0,0,0,0,0,0,0,0,0,0,0,0,0,0,0,0,0,0,0,0,0,0,0,0,0,0,0,0,0,0,0,0,0,0,0]}],[{"header":{"parameterUnit":"kt","parameterCategory":2,"dx":1,"dy":1,"la1":30.253999710083008,"la2":30.299108505249023,"lo1":-89.0895004272461,"lo2":-89.04439544677734,"nx":28,"ny":28,"refTime":"2022-10-19T21:00:00:Z","depth":0,"parameterNumber":2,"parameterNumberName":"V-component_of_WINDS"},"data":[-5.9319,-5.9407,-5.9425,-5.9533,-5.9568,-5.9643,-5.9676,-5.9719,-5.9758,-5.9848,-5.9903,-5.9928,-5.9972,-6.004,-6.0098,-6.0107,-6.0129,-6.0146,-6.0153,-6.0064,-6.0052,-6.0041,-6.002,-6.0152,-6.0152,-6.0242,-6.0243,-6.0244,-5.9245,-5.928,-5.9345,-5.9418,-5.9472,-5.9466,-5.9523,-5.9567,-5.9635,-5.9684,-5.974,-5.982,-5.9886,-5.9925,-5.999,-6.0028,-6.0027,-6.0044,-6.0039,-6.0045,-5.995,-5.9929,-6.0043,-6.0043,-6.0043,-6.0043,-6.0043,-6.0043,-5.9116,-5.9169,-5.9225,-5.9294,-5.9337,-5.9385,-5.9438,-5.947,-5.9531,-5.9604,-5.9614,-5.969,-5.9741,-5.9829,-5.9863,-5.992,-5.9904,-5.9927,-5.9932,-5.9936,-5.9937,-5.9796,-5.9933,-5.9933,-5.9932,-5.9932,-5.9932,0,-5.9025,-5.9037,-5.9101,-5.9169,-5.9221,-5.9276,-5.9329,-5.9363,-5.9393,-5.9442,-5.9515,-5.9559,-5.9646,-5.9714,-5.978,-5.981,-5.9805,-5.9809,-5.9824,-5.9817,-5.9802,-5.9806,-5.9646,-5.9804,-5.9803,-5.9802,-5.9801,-5.9801,-5.8891,-5.8954,-5.9022,-5.9064,-5.9099,-5.9167,-5.921,-5.9233,-5.9278,-5.9345,-5.939,-5.9461,-5.9518,-5.963,-5.9664,-5.9728,-5.9726,-5.9783,-5.9735,-5.9726,-5.972,-5.9715,-5.9719,-5.979,-5.9792,-5.9793,-5.9794,0,-5.8813,-5.8845,-5.8947,-5.901,-5.9027,-5.909,-5.9142,-5.9196,-5.9222,-5.9299,-5.9318,-5.9357,-5.9428,-5.9454,-5.954,-5.955,-5.9646,-5.9645,-5.9627,-5.9627,-5.9677,-5.967,-5.9846,-5.9868,-5.9737,-5.9738,-5.9739,0,-5.8709,-5.879,-5.8832,-5.889,-5.898,-5.9001,-5.9089,-5.912,-5.9167,-5.9228,-5.9231,-5.9287,-5.9313,-5.9373,-5.9389,-5.9473,-5.9491,-5.9502,-5.9505,-5.95,-5.9498,-5.952,-5.9511,-5.9515,-5.9514,-5.9513,-5.9513,0,-5.8579,-5.87,-5.8795,-5.8827,-5.8902,-5.8946,-5.8979,-5.9033,-5.9076,-5.9135,-5.9162,-5.9231,-5.9267,-5.9318,-5.9338,-5.9304,-5.9444,-5.9401,-5.9455,-5.9454,-5.9481,-5.9479,-5.9632,-5.9511,-5.9511,-5.9511,-5.9511,0,-5.8499,-5.8563,-5.8698,-5.8759,-5.879,-5.8853,-5.8922,-5.8983,-5.904,-5.9055,-5.9102,-5.9106,-5.9186,-5.9141,-5.9249,-5.9199,-5.9233,-5.9253,-5.9257,-5.9262,-5.921,-5.9286,-5.9434,-5.9447,-5.927,-5.9268,-5.9267,0,-5.8339,-5.8486,-5.8506,-5.8635,-5.8705,-5.8702,-5.8773,-5.8824,-5.8851,-5.8912,-5.8941,-5.9011,-5.8984,-5.9009,-5.9061,-5.9091,-5.9158,-5.9084,-5.9165,-5.9168,-5.9145,-5.9283,-5.9296,-5.9399,-5.9242,-5.9244,-5.9246,0,-5.8218,-5.8313,-5.8335,-5.8371,-5.8446,-5.8507,-5.8589,-5.8665,-5.8704,-5.8765,-5.883,-5.8934,-5.8915,-5.8958,-5.8969,-5.902,-5.9113,-5.8994,-5.8995,-5.901,-5.9234,-5.9245,-5.9262,-5.9108,-5.9111,-5.9114,-5.9227,0,-5.808,-5.816,-5.8222,-5.8307,-5.8359,-5.8443,-5.8474,-5.8524,-5.8529,-5.8555,-5.8656,-5.8707,-5.8783,-5.8813,-5.8819,-5.8931,-5.8915,-5.8896,-5.885,-5.8942,-5.8979,-5.8995,-5.8792,-5.8791,-5.879,-5.8789,0,0,-5.7916,-5.8032,-5.8054,-5.8136,-5.818,-5.8177,-5.8263,-5.8306,-5.8394,-5.8423,-5.8399,-5.8551,-5.8593,-5.8711,-5.8742,-5.8776,-5.8796,-5.8764,-5.89,-5.8912,-5.8923,-5.8963,-5.8979,-5.8788,-5.8787,-5.8787,-5.8787,0,-5.7872,-5.7921,-5.8008,-5.8054,-5.8123,-5.8148,-5.8169,-5.8237,-5.8258,-5.836,-5.8352,-5.8417,-5.854,-5.8584,-5.8622,-5.8752,-5.8741,-5.8774,-5.8831,-5.8889,-5.8903,-5.8915,-5.8956,-5.8971,-5.8784,-5.8784,-5.8785,0,-5.7755,-5.7806,-5.7853,-5.7959,-5.8004,-5.8079,-5.8041,-5.8123,-5.8178,-5.8168,-5.8269,-5.8301,-5.8364,-5.8475,-5.8525,-5.8504,-5.8688,-5.8638,-5.8645,-5.865,-5.8707,-5.8723,-5.8738,-5.8547,-5.8546,-5.8545,0,0,-5.7712,-5.7788,-5.785,-5.7952,-5.7981,-5.802,-5.8064,-5.8074,-5.8133,-5.8156,-5.8198,-5.8253,-5.8324,-5.837,-5.8439,-5.8558,-5.8569,-5.8608,-5.8619,-5.8628,-5.8638,-5.8697,-5.8714,-5.8541,-5.8541,-5.8541,0,0,-5.7691,-5.7767,-5.7763,-5.7886,-5.7943,-5.801,-5.8069,-5.8065,-5.8131,-5.8124,-5.8144,-5.8159,-5.8264,-5.8296,-5.8244,-5.8422,-5.8378,-5.8391,-5.8397,-5.8412,-5.8423,-5.8411,-5.821,0,0,0,0,0,-5.7662,-5.7758,-5.7753,-5.7779,-5.7913,-5.8012,-5.8029,-5.8049,-5.8016,-5.8062,-5.8096,-5.8084,-5.8271,-5.8226,-5.825,-5.8306,-5.8495,-5.8503,-5.8511,-5.8547,-5.8562,-5.8574,0,0,0,0,0,0,-5.7672,-5.7703,-5.7751,-5.7822,-5.7852,-5.8009,-5.7957,-5.7965,-5.8011,-5.8008,-5.8078,-5.8086,-5.8103,-5.8215,-5.8236,-5.829,-5.8203,-5.8498,-5.8505,-5.8511,-5.8552,-5.8564,-5.8575,0,0,0,0,0,-5.768,-5.7705,-5.7916,-5.782,-5.7847,-5.7896,-5.7954,-5.796,-5.7996,-5.8049,-5.8057,-5.8006,-5.8104,-5.8123,-5.8228,-5.8279,-5.8188,-5.8196,-5.8503,-5.8508,-5.8513,-5.8558,0,0,0,0,0,0,-5.7686,-5.7711,-5.7922,-5.793,-5.7786,-5.7887,-5.7904,-5.7956,-5.8035,-5.8044,-5.7978,-5.7975,-5.8106,-5.812,-5.8135,-5.8275,-5.8176,-5.8184,-5.8189,-5.8507,-5.8511,-5.8515,0,0,0,0,0,0,-5.7697,-5.7718,-5.7926,-5.7882,-5.7886,-5.7879,-5.7894,-5.7986,-5.8036,-5.7959,-5.7959,-5.7976,-5.8083,-5.8119,-5.813,-5.8274,-5.8167,-5.8175,-5.818,-5.8183,-5.851,-5.8514,0,0,0,0,0,0,-5.7706,-5.7724,-5.788,-5.7883,-5.7886,-5.7984,-5.7961,-5.8097,-5.8,-5.7956,-5.7992,-5.7988,-5.8082,-5.8094,-5.8127,-5.8266,-5.8272,-5.8168,-5.8173,-5.8176,-5.8179,0,0,0,0,0,0,0,-5.7714,-5.759,-5.7871,-5.7883,-5.7886,-5.801,-5.8012,-5.8015,-5.7999,-5.7996,-5.7992,-5.7989,-5.8124,-5.8132,-5.8141,-5.8259,0,0,-5.8167,-5.817,0,0,0,0,0,0,0,0,-5.7583,-5.7588,-5.7871,-5.7873,-5.7875,-5.801,-5.8012,-5.8014,-5.7999,-5.7996,-5.7993,-5.7991,-5.8126,-5.8133,-5.814,0,0,0,0,0,0,0,0,0,0,0,0,0,0,0,-5.7871,-5.7873,0,-5.8011,-5.8012,-5.8014,-5.7998,-5.7996,-5.7994,-5.7992,-5.8128,-5.8134,-5.8139,0,0,0,0,0,0,0,0,0,0,0,0,0,0,0,0,0,0,0,0,0,0,0,0,0,0,0,0,0,0,0,0,0,0,0,0,0,0,0,0,0,0,0,0,0,0,0,0,0,0,0,0,0,0,0,0,0,0,0,0,0,0,0,0,0,0,0,0,0]}]]]